Weather History for Mount Pleasant, MI

Change the Weather History Date:

Wednesday, April 23, 2014

  Actual Average (KAMN) Record (KAMN)
Temperature  
Mean Temperature 44 °F -  
Max Temperature 56 °F 58 °F 86 °F (1960)
Min Temperature 31 °F 37 °F 21 °F (1956)
Degree Days  
Heating Degree Days 22    
Moisture  
Dew Point 22 °F    
Average Humidity 51    
Maximum Humidity 87    
Minimum Humidity 17    
Precipitation  
Precipitation 0.00 in - - ()
Sea Level Pressure  
Sea Level Pressure 30.07 in    
Wind  
Wind Speed 7 mph (NNW)    
Max Wind Speed 12 mph    
Max Gust Speed 20 mph    
Visibility 10 miles    
Events      
Averages and records for this station are not official NWS values.
T = Trace of Precipitation, MM = Missing Value Source: NWS Daily Summary

Daily Weather History Graph

Daily Weather History Graph

Search for Another Location

Airport:

Trip Planner

Search our weather history database for the weather conditions in past years. The results will help you decide how hot, cold, wet, or windy it might be!

Date:

Astronomy

Apr. 23, 2014 Rise Set
Actual Time 6:43 AM EDT 8:31 PM EDT
Civil Twilight 6:12 AM EDT 9:02 PM EDT
Nautical Twilight 5:35 AM EDT 9:40 PM EDT
Astronomical Twilight 4:55 AM EDT 10:20 PM EDT
Moon 3:26 AM EDT (4/23) 2:28 PM EDT (4/23)
Length of Visible Light 14h 49m
Length of Day
13h 48m
Waning Crescent, 35% of the Moon is Illuminated
Apr 23
Waning Crescent
Apr 29
New
May 6
First Quarter
May 14
Full
May 21
Last Quarter

Hourly Weather History & Observations

Time (EDT) Temp. Windchill Dew Point Humidity Pressure Visibility Wind Dir Wind Speed Gust Speed Precip Events Conditions
12:15 AM 36.1 °F 29.9 °F 28.4 °F 73% 30.00 in 10.0 mi NW 8.1 mph 19.6 mph N/A   Overcast
12:35 AM 36.0 °F 28.5 °F 28.4 °F 74% 30.00 in 10.0 mi NW 10.4 mph 17.3 mph N/A   Overcast
12:55 AM 35.8 °F 27.8 °F 28.4 °F 75% 30.00 in 10.0 mi NNW 11.5 mph - N/A   Overcast
1:14 AM 35.6 °F 28.0 °F 28.4 °F 75% 30.00 in 10.0 mi NW 10.4 mph 16.1 mph N/A   Overcast
1:35 AM 35.1 °F 27.4 °F 28.4 °F 77% 30.01 in 10.0 mi NW 10.4 mph - N/A   Mostly Cloudy
1:55 AM 34.9 °F 29.0 °F 28.4 °F 77% 30.00 in 10.0 mi NW 6.9 mph - N/A   Scattered Clouds
2:14 AM 34.3 °F 28.4 °F 28.4 °F 79% 30.01 in 10.0 mi NW 6.9 mph - N/A   Clear
2:35 AM 34.2 °F 28.2 °F 28.6 °F 80% 30.00 in 10.0 mi NW 6.9 mph - N/A   Clear
2:55 AM 34.2 °F 27.5 °F 28.6 °F 80% 30.01 in 10.0 mi NW 8.1 mph - N/A   Clear
3:14 AM 33.8 °F 27.7 °F 28.4 °F 81% 30.01 in 10.0 mi NW 6.9 mph - N/A   Clear
3:35 AM 33.8 °F 27.0 °F 28.4 °F 81% 30.01 in 10.0 mi NW 8.1 mph - N/A   Clear
3:55 AM 33.3 °F 26.4 °F 28.4 °F 82% 30.01 in 10.0 mi WNW 8.1 mph - N/A   Clear
4:14 AM 33.1 °F 26.9 °F 28.4 °F 83% 30.02 in 10.0 mi NW 6.9 mph - N/A   Clear
4:35 AM 32.4 °F 26.0 °F 28.2 °F 85% 30.03 in 10.0 mi NW 6.9 mph - N/A   Clear
4:55 AM 32.4 °F 26.9 °F 28.4 °F 85% 30.04 in 10.0 mi NW 5.8 mph - N/A   Clear
5:15 AM 32.0 °F 26.4 °F 28.4 °F 87% 30.05 in 10.0 mi NW 5.8 mph - N/A   Clear
5:35 AM 32.0 °F 27.5 °F 28.4 °F 87% 30.05 in 10.0 mi NW 4.6 mph - N/A   Clear
5:55 AM 32.0 °F 27.5 °F 28.2 °F 86% 30.06 in 10.0 mi NW 4.6 mph - N/A   Clear
6:15 AM 32.0 °F 28.7 °F 28.2 °F 86% 30.06 in 10.0 mi NW 3.5 mph - N/A   Clear
6:35 AM 31.8 °F 27.3 °F 28.0 °F 86% 30.06 in 10.0 mi NW 4.6 mph - N/A   Clear
6:55 AM 31.6 °F 28.3 °F 27.9 °F 86% 30.07 in 10.0 mi NW 3.5 mph - N/A   Clear
7:15 AM 32.0 °F 27.5 °F 28.0 °F 85% 30.08 in 10.0 mi West 4.6 mph - N/A   Clear
7:35 AM 32.4 °F 29.1 °F 28.4 °F 85% 30.09 in 10.0 mi WNW 3.5 mph - N/A   Clear
7:55 AM 33.3 °F 28.9 °F 28.6 °F 83% 30.10 in 10.0 mi WNW 4.6 mph - N/A   Clear
8:15 AM 34.5 °F 30.4 °F 28.8 °F 79% 30.10 in 10.0 mi NW 4.6 mph - N/A   Clear
8:35 AM 35.6 °F 30.7 °F 28.8 °F 76% 30.10 in 10.0 mi NW 5.8 mph - N/A   Clear
8:55 AM 36.9 °F 31.4 °F 28.4 °F 71% 30.11 in 10.0 mi NW 6.9 mph - N/A   Clear
9:15 AM 38.5 °F 32.7 °F 27.9 °F 66% 30.12 in 10.0 mi NW 8.1 mph - N/A   Clear
9:35 AM 39.2 °F 35.0 °F 26.6 °F 61% 30.12 in 10.0 mi NNW 5.8 mph - N/A   Clear
9:55 AM 40.3 °F 36.3 °F 26.6 °F 58% 30.11 in 10.0 mi North 5.8 mph - N/A   Clear
10:15 AM 41.9 °F 37.5 °F 26.1 °F 53% 30.11 in 10.0 mi NW 6.9 mph - N/A   Clear
10:35 AM 43.0 °F 40.3 °F 25.0 °F 49% 30.11 in 10.0 mi NNW 4.6 mph - N/A   Clear
10:55 AM 44.1 °F 39.5 °F 22.1 °F 42% 30.11 in 10.0 mi NNW 8.1 mph - N/A   Clear
11:15 AM 45.3 °F 40.6 °F 18.5 °F 34% 30.11 in 10.0 mi North 9.2 mph - N/A   Clear
11:35 AM 46.2 °F 40.8 °F 17.6 °F 32% 30.12 in 10.0 mi North 11.5 mph 17.3 mph N/A   Clear
11:55 AM 47.8 °F - 18.0 °F 31% 30.12 in 10.0 mi North 11.5 mph - N/A   Clear
12:15 PM 48.4 °F - 17.4 °F 29% 30.11 in 10.0 mi North 10.4 mph - N/A   Clear
12:35 PM 48.7 °F - 14.0 °F 25% 30.11 in 10.0 mi NNW 9.2 mph 17.3 mph N/A   Clear
1:35 PM 51.4 °F - 13.8 °F 22% 30.10 in 10.0 mi North 6.9 mph - N/A   Clear
1:55 PM 51.4 °F - 11.7 °F 20% 30.10 in 10.0 mi North 3.5 mph - N/A   Clear
2:15 PM 52.5 °F - 12.2 °F 20% 30.10 in 10.0 mi NE 3.5 mph - N/A   Clear
2:35 PM 52.5 °F - 12.0 °F 20% 30.10 in 10.0 mi North 3.5 mph - N/A   Clear
2:55 PM 53.1 °F - 11.1 °F 19% 30.10 in 10.0 mi NW 4.6 mph - N/A   Clear
3:15 PM 54.7 °F - 13.8 °F 20% 30.09 in 10.0 mi NNE 5.8 mph - N/A   Clear
3:35 PM 53.6 °F - 13.3 °F 20% 30.09 in 10.0 mi NNE 5.8 mph - N/A   Clear
4:15 PM 56.1 °F - 14.7 °F 20% 30.08 in 10.0 mi NW 6.9 mph - N/A   Clear
4:35 PM 55.8 °F - 14.4 °F 20% 30.08 in 10.0 mi NNE 6.9 mph - N/A   Clear
4:54 PM 56.8 °F - 13.6 °F 18% 30.08 in 10.0 mi West 8.1 mph - N/A   Clear
5:15 PM 56.1 °F - 11.8 °F 17% 30.07 in 10.0 mi West 4.6 mph - N/A   Clear
5:34 PM 56.7 °F - 13.8 °F 18% 30.07 in 10.0 mi WNW 6.9 mph - N/A   Clear
5:55 PM 55.8 °F - 13.5 °F 19% 30.06 in 10.0 mi North 4.6 mph - N/A   Clear
6:15 PM 56.8 °F - 13.1 °F 18% 30.06 in 10.0 mi NW 6.9 mph - N/A   Clear
6:34 PM 56.1 °F - 13.5 °F 19% 30.06 in 10.0 mi NW 5.8 mph - N/A   Clear
6:55 PM 55.4 °F - 13.1 °F 19% 30.07 in 10.0 mi NNW 4.6 mph - N/A   Clear
7:15 PM 54.7 °F - 14.0 °F 20% 30.07 in 10.0 mi NW 4.6 mph - N/A   Clear
7:34 PM 53.8 °F - 13.8 °F 21% 30.07 in 10.0 mi NW 4.6 mph - N/A   Clear
7:55 PM 52.9 °F - 15.6 °F 23% 30.07 in 10.0 mi NW 4.6 mph - N/A   Clear
8:15 PM 52.2 °F - 15.4 °F 23% 30.07 in 10.0 mi NW 3.5 mph - N/A   Clear
8:34 PM 51.3 °F - 16.5 °F 25% 30.08 in 10.0 mi NW 3.5 mph - N/A   Clear
8:55 PM 50.0 °F - 19.2 °F 30% 30.08 in 10.0 mi North 3.5 mph - N/A   Clear
9:15 PM 49.1 °F - 20.5 °F 32% 30.09 in 10.0 mi Calm Calm - N/A   Clear
9:34 PM 47.7 °F - 23.5 °F 39% 30.10 in 10.0 mi North 3.5 mph - N/A   Clear
9:55 PM 46.6 °F - 22.6 °F 39% 30.10 in 10.0 mi NNE 6.9 mph - N/A   Clear
10:15 PM 46.2 °F 42.2 °F 21.4 °F 37% 30.10 in 10.0 mi ENE 8.1 mph - N/A   Clear
10:34 PM 43.9 °F 38.8 °F 26.6 °F 51% 30.11 in 10.0 mi ENE 9.2 mph - N/A   Clear
10:55 PM 41.9 °F 36.9 °F 24.1 °F 49% 30.11 in 10.0 mi ENE 8.1 mph - N/A   Clear
11:15 PM 41.0 °F 37.1 °F 24.4 °F 52% 30.11 in 10.0 mi ENE 5.8 mph - N/A   Clear
11:34 PM 40.3 °F 36.3 °F 23.2 °F 51% 30.11 in 10.0 mi East 5.8 mph - N/A   Clear
11:55 PM 39.2 °F 35.9 °F 23.9 °F 54% 30.11 in 10.0 mi NE 4.6 mph - N/A   Clear